Weather in Vasylkivka

Ukraine / Dnipropetrovsk Region     48°12′29″N   36°01′46″E
temp.,
°C
wind,
m/s
gust,
m/s
humid.,
%
clouds,
%
prec.,
mm/h
press.,
hPa
HPBL,
m
28 november, sun
sun2823:00+7s5119625 0.0 1007256
02:00+9sw699298 0.0 1007365
05:00+6ssw339711 0.0 100853
08:00+6s34950 0.0 100968
11:00+11s45732 0.0 1008329
14:00+13s3666100 0.0 1008485
17:00+10se4881100 0.0 1008153
20:00+9ese3597100 2.3 1006140
29 november, mon
mon2923:00+11s71496100 3.4 1004630
02:00+10s5109492 3.8 1003362
05:00+10s51196100 0.0 1003390
08:00+11s61294100 0.1 1003604
11:00+11s81889100 1.3 10011001
14:00+13s81974100 2.2 997830
17:00+14s10207294 0.4 993941
20:00+13s12218176 0.4 9911013
30 november, tue
tue3023:00+12sw13227292 0.8 9901249
02:00+6wsw10177597 0.8 995989
05:00+5wsw8147150 0.0 1000897
08:00+4sw71369100 0.0 1002704
11:00+6wsw7115257 0.0 1002643
14:00+7wsw584588 0.0 1001775
17:00+4w3660100 0.0 1000161
20:00+3nw4863100 0.0 1000505
1 december, wed
wed123:00+2nw61167100 0.0 999811
02:00+1wnw5107495 0.0 1002496
05:00−1w611815 0.0 1003497
08:00−1wsw6127643 0.0 1006614
11:00+2wsw71252100 0.0 10061003
14:00+4sw71259100 0.0 10051253
17:00+3wsw61257100 0.0 1005735
20:00+2wsw611668 0.0 1006434
2 december, thu
thu223:00+2wsw4974100 0.0 1008372
02:00+2sw5107263 0.0 1009389
05:00+1ssw51079100 0.0 1010228
08:00+3ssw61570100 0.0 1010433
11:00+7sw8156963 0.0 1010796
14:00+9sw814709 0.0 1009969
17:00+8ssw7137986 0.0 1010509
20:00+6ssw71485100 0.0 1011433